Wind_Speed
27 30 33 35 36 36 37 39 43 43 45 50 56 66 62 65 60 67 59 51 53 53 53 55 54 54 52 50 43 41 46 46 44 40 36 30 23 18 15 31 26 33 35 37 46
26 27 29 31 33 35 39 40 40 42 45 47 47 53 61 69 70 69 60 55 57 58 59 54 51 45 48 48 46 51 51 44 40 38 38 36 21 25 22 24 27 36 39 32 35
28 29 30 32 32 33 34 36 42 44 45 47 48 51 53 53 56 62 69 64 62 60 51 50 50 51 53 50 46 45 49 44 43 43 41 39 35 33 27 28 29 33 27 29 43
31 32 33 34 35 36 37 38 39 41 41 44 44 45 47 48 50 53 61 67 72 66 61 59 55 54 56 56 52 54 54 51 50 47 46 49 45 44 44 42 40 38 43 49 54
34 35 36 38 39 40 41 42 42 43 44 45 46 49 49 47 46 52 52 52 56 72 69 64 64 61 65 57 54 61 60 56 52 48 47 51 55 55 51 45 50 48 51 56 57
35 36 37 38 39 41 43 44 46 47 48 48 49 49 49 49 50 54 54 53 50 51 60 70 79 70 70 68 66 59 59 59 57 58 58 58 60 59 58 57 59 64 61 58 58
38 40 41 42 42 43 44 45 47 48 49 51 52 53 51 47 51 53 56 54 54 53 54 58 65 78 73 72 67 64 66 67 66 68 70 55 62 62 53 47 50 55 55 52 50
39 39 41 43 45 47 49 51 51 52 52 52 53 53 52 54 55 55 56 56 55 57 56 55 59 65 69 64 68 71 70 69 56 55 47 51 61 50 44 45 48 48 50 48 45
38 40 43 46 48 50 52 54 56 57 58 58 58 57 54 54 57 57 59 58 59 58 57 59 60 60 63 62 63 64 66 59 47 45 51 49 53 41 40 41 41 41 42 47 49
42 44 47 49 51 54 56 57 60 61 62 62 64 62 63 61 60 60 62 62 61 62 62 61 65 65 63 63 63 54 51 41 46 43 43 42 46 37 40 36 35 38 37 34 40
45 49 52 55 58 60 61 63 64 65 64 65 66 65 65 66 67 65 63 62 63 64 66 69 72 63 52 57 54 56 51 53 50 46 46 43 42 37 37 39 39 39 42 35 39
50 51 54 57 60 64 67 68 69 68 65 65 67 65 65 65 69 68 67 67 66 65 66 73 69 47 58 58 59 57 58 59 51 48 44 37 41 44 42 39 37 38 40 40 40
54 58 64 68 72 73 71 68 66 70 73 67 62 66 61 66 64 64 67 67 69 68 69 71 55 61 64 64 59 58 55 52 49 47 45 46 43 45 37 40 42 42 41 40 37
58 63 65 65 57 45 42 42 45 47 52 46 50 53 50 53 60 59 60 63 66 66 65 66 60 64 67 66 61 61 51 55 52 53 51 42 53 42 35 37 36 41 37 34 37
60 58 56 44 40 40 36 34 37 35 13 5 13 19 23 25 36 39 50 55 61 62 62 60 63 65 67 58 61 52 49 50 50 52 51 49 49 26 30 33 37 37 35 34 33
54 53 45 48 46 36 34 33 12 6 1 12 13 14 8 12 15 32 29 42 47 54 60 63 62 64 65 61 66 59 54 51 50 48 45 44 44 34 31 33 33 32 33 36 34
52 48 46 50 40 35 26 7 2 9 7 14 17 18 16 14 16 14 11 15 27 25 47 59 64 67 63 65 65 64 61 56 52 55 53 35 42 37 25 34 35 34 31 29 29
47 44 44 41 41 29 13 2 4 10 9 13 23 23 26 30 15 14 19 24 23 22 30 42 48 60 65 68 60 65 65 61 62 56 52 44 48 29 27 25 25 22 24 21 22
43 41 43 41 45 32 15 7 13 18 14 15 12 4 9 7 37 26 23 21 21 30 36 36 35 52 60 65 60 50 60 56 52 44 44 41 29 32 27 18 20 21 16 17 9
39 39 41 37 37 36 26 16 20 19 23 23 15 10 7 9 12 15 24 20 21 31 27 41 36 40 59 62 67 56 47 63 52 52 43 42 24 15 22 20 18 12 13 16 6
41 39 37 36 33 32 29 26 18 19 18 19 10 9 9 9 14 16 16 15 15 28 33 36 39 32 48 43 62 56 54 49 54 44 47 33 19 16 28 22 20 16 15 15 14
42 40 37 37 35 32 28 26 21 17 16 13 10 7 10 10 8 8 20 34 29 31 27 33 42 39 42 40 37 46 53 54 60 54 46 34 29 29 31 26 24 21 21 18 19
39 39 36 31 32 33 29 24 23 20 17 14 8 6 4 7 13 16 14 14 18 14 19 25 34 36 35 42 51 52 52 58 55 42 42 34 23 34 32 30 23 23 23 22 19
41 40 36 35 33 32 30 24 22 23 21 17 7 10 12 15 9 15 20 11 11 8 13 26 35 31 36 36 48 49 43 54 48 51 39 35 22 27 20 20 27 24 16 15 16
42 41 41 35 33 32 28 25 21 20 18 17 14 11 16 17 14 16 17 9 11 10 10 20 22 38 47 44 49 44 49 40 45 43 47 40 34 10 18 28 28 23 18 18 16
41 41 38 38 31 30 36 22 22 18 20 17 17 18 16 10 12 15 17 11 6 4 7 6 17 30 46 33 47 48 54 52 42 34 43 26 31 18 30 31 29 30 28 23 16
38 38 39 41 35 32 31 25 20 21 18 20 20 20 18 15 15 14 15 11 9 7 3 12 6 19 34 37 16 54 56 50 47 35 42 30 36 38 27 16 26 30 27 21 16
Wind_Direction
269 268 267 263 258 257 255 250 249 249 246 242 243 237 243 243 243 251 239 243 245 247 248 251 259 254 253 256 248 247 246 248 252 255 253 244 253 272 258 262 246 265 260 263 278
270 269 270 269 266 260 253 251 251 250 249 249 247 242 244 243 246 242 239 240 244 247 248 248 250 243 245 249 257 262 257 262 264 254 252 252 257 265 256 271 269 259 267 278 278
272 270 268 268 266 263 261 257 252 247 245 246 245 245 245 244 243 240 237 239 241 244 241 242 244 241 245 248 249 251 263 264 258 249 250 251 244 248 254 270 274 294 279 264 271
273 273 272 269 267 266 263 260 257 254 251 250 250 248 247 247 248 243 241 243 243 237 243 246 244 243 247 248 244 247 262 257 257 250 251 254 249 245 244 248 261 268 265 271 278
269 269 269 268 267 266 265 264 261 258 255 251 248 248 249 247 247 251 248 246 242 239 239 245 245 244 245 245 245 254 259 254 255 252 255 255 254 257 258 256 259 259 261 269 282
278 275 273 271 270 269 268 266 264 262 260 257 255 251 247 248 246 245 246 248 244 242 243 244 244 247 249 249 250 257 254 251 254 257 266 265 262 260 267 272 266 266 272 274 273
281 280 280 278 276 273 270 267 266 265 263 260 257 255 254 251 249 247 248 245 247 245 244 243 243 243 249 252 254 256 257 258 259 261 266 261 263 266 275 277 275 271 273 276 276
290 288 286 283 281 279 277 274 270 266 263 261 260 259 257 253 249 249 248 248 245 244 244 244 245 245 246 250 249 251 254 259 258 263 268 264 268 270 276 277 276 275 273 272 275
293 290 288 286 284 281 278 275 272 270 266 264 262 258 255 253 252 247 247 247 244 243 242 243 242 242 244 246 248 249 256 261 266 265 266 260 265 275 280 277 279 280 273 268 269
295 292 288 285 282 279 277 274 272 269 267 264 263 261 257 254 251 250 248 248 247 244 241 240 242 240 240 244 248 253 261 266 264 265 267 267 274 278 280 278 278 284 282 280 278
300 298 296 293 288 284 279 276 274 269 265 262 259 257 259 255 254 252 250 249 248 246 244 239 238 240 249 251 255 256 258 258 261 266 270 268 276 273 275 264 274 274 281 286 278
307 303 301 298 295 291 286 284 281 276 268 266 262 258 255 252 252 250 249 249 247 246 244 240 242 246 243 243 243 248 252 254 257 259 260 261 265 275 278 282 279 278 279 281 280
316 313 310 305 301 295 292 289 285 280 273 270 267 262 260 257 253 249 247 245 244 243 243 242 245 239 238 239 240 242 246 250 254 253 257 261 262 264 272 275 275 282 281 283 287
320 318 315 312 310 308 301 295 291 288 283 289 285 276 266 262 258 252 249 246 243 241 242 241 238 238 234 235 237 241 244 248 249 252 254 254 265 263 271 275 284 281 291 299 290
331 331 331 336 324 316 314 313 317 314 316 229 296 267 267 254 243 254 250 248 244 241 239 240 236 234 234 237 235 238 237 242 246 250 256 254 260 270 266 274 277 290 293 293 291
348 351 345 342 332 318 314 317 338 36 29 211 257 228 257 243 247 244 257 251 246 242 239 233 232 231 232 231 231 231 232 233 237 243 250 250 258 265 266 271 276 291 295 291 278
0 359 350 349 340 330 325 331 345 44 26 322 289 280 218 197 181 206 205 240 259 249 239 232 230 227 224 226 226 227 226 229 231 235 247 250 255 266 265 275 283 287 294 292 271
3 0 352 349 2 358 6 73 44 360 351 280 304 299 260 251 252 235 263 236 234 249 229 236 228 222 227 225 223 224 225 226 232 239 249 250 251 278 283 292 287 284 287 269 266
2 2 356 360 8 12 360 336 344 342 326 323 305 286 281 258 242 239 252 243 240 222 235 230 233 220 216 222 212 211 214 225 228 235 243 248 267 269 300 301 279 285 263 274 256
360 2 1 1 6 14 12 331 315 313 308 309 285 287 298 220 312 254 237 247 229 232 246 234 229 215 211 213 217 203 214 212 215 220 228 238 248 264 271 279 286 256 265 242 251
358 357 3 1 0 2 8 2 343 332 320 311 282 287 295 265 233 270 269 283 267 243 253 236 228 202 206 205 212 203 201 211 212 220 218 223 207 252 262 264 274 245 250 246 215
354 354 358 357 358 354 357 1 6 332 324 314 304 295 314 277 256 219 229 239 247 246 247 241 222 201 212 190 207 203 206 200 206 211 217 217 214 248 242 259 264 241 243 235 225
357 352 355 352 351 356 355 357 357 358 342 332 282 268 254 331 314 319 245 250 265 267 251 236 214 214 212 199 191 200 204 197 198 201 216 194 197 248 246 240 246 232 230 230 230
354 356 353 353 350 348 355 354 356 355 359 352 296 275 279 315 262 277 309 301 263 288 263 233 218 216 202 187 192 197 197 196 190 196 192 188 214 239 229 225 209 216 229 219 213
355 356 354 354 352 352 345 355 353 345 347 350 349 315 291 284 261 245 263 270 259 261 265 229 224 224 209 185 188 192 178 193 187 204 189 180 204 210 220 221 213 216 233 225 214
353 356 356 355 352 356 2 346 354 350 350 351 353 332 320 297 242 247 259 257 250 236 208 204 234 238 214 191 185 188 175 177 183 203 186 169 206 224 179 213 217 208 226 216 203
349 355 356 357 355 348 350 351 350 4 360 5 349 341 328 302 263 263 233 235 200 198 287 239 260 234 222 203 175 172 172 171 181 189 169 189 198 212 212 160 192 203 206 201 206
Height
5787 5787 5786 5787 5788 5789 5791 5792 5793 5794 5796 5799 5802 5805 5808 5811 5813 5813 5821 5825 5824 5827 5828 5830 5831 5835 5836 5840 5843 5844 5842 5844 5853 5858 5861 5862 5862 5865 5864 5860 5863 5859 5861 5861 5861
5782 5781 5780 5779 5779 5780 5781 5782 5784 5785 5788 5789 5791 5794 5797 5799 5802 5805 5814 5814 5816 5816 5818 5822 5824 5826 5827 5831 5832 5832 5836 5842 5848 5851 5853 5855 5858 5857 5856 5854 5855 5855 5854 5855 5853
5776 5775 5774 5773 5772 5772 5773 5773 5774 5776 5777 5779 5781 5783 5785 5788 5790 5794 5798 5803 5805 5806 5809 5811 5815 5817 5818 5822 5823 5825 5826 5835 5838 5842 5845 5847 5847 5848 5849 5848 5849 5842 5846 5846 5844
5770 5769 5767 5766 5765 5764 5764 5764 5765 5766 5767 5768 5769 5772 5774 5777 5779 5781 5783 5790 5795 5798 5799 5802 5806 5808 5810 5813 5818 5816 5821 5824 5829 5833 5836 5837 5839 5838 5840 5841 5843 5844 5841 5839 5839
5764 5762 5760 5758 5757 5756 5755 5755 5755 5755 5756 5757 5759 5761 5762 5766 5771 5768 5773 5777 5781 5786 5790 5792 5794 5798 5798 5805 5809 5809 5814 5816 5820 5823 5827 5829 5828 5828 5831 5837 5836 5832 5832 5830 5829
5757 5755 5752 5750 5748 5746 5745 5743 5743 5743 5743 5745 5746 5748 5750 5755 5759 5760 5759 5764 5769 5774 5777 5779 5782 5787 5789 5792 5795 5805 5804 5807 5810 5812 5816 5818 5818 5821 5823 5824 5823 5825 5823 5824 5822
5748 5745 5742 5740 5738 5736 5734 5733 5731 5730 5730 5731 5733 5734 5738 5746 5745 5746 5745 5755 5757 5760 5763 5766 5767 5770 5781 5779 5789 5790 5791 5794 5797 5803 5803 5810 5803 5808 5814 5815 5813 5813 5813 5813 5812
5738 5735 5732 5729 5727 5724 5721 5719 5718 5717 5717 5717 5717 5719 5724 5728 5729 5733 5735 5739 5744 5748 5752 5755 5756 5760 5763 5772 5771 5775 5779 5777 5790 5794 5800 5803 5789 5803 5808 5806 5802 5803 5803 5804 5804
5730 5726 5722 5718 5715 5711 5708 5705 5702 5702 5701 5702 5702 5705 5710 5713 5713 5718 5720 5724 5729 5734 5739 5742 5743 5749 5752 5756 5759 5764 5764 5773 5785 5793 5788 5788 5786 5798 5797 5795 5795 5794 5793 5795 5796
5720 5715 5711 5707 5702 5697 5693 5689 5686 5685 5685 5686 5685 5691 5690 5696 5697 5701 5704 5709 5714 5719 5724 5728 5728 5732 5739 5744 5744 5759 5765 5772 5771 5781 5779 5778 5778 5787 5788 5787 5787 5787 5785 5788 5790
5710 5704 5697 5690 5684 5678 5674 5670 5666 5665 5667 5667 5668 5671 5673 5674 5677 5683 5688 5691 5695 5701 5707 5709 5708 5723 5739 5744 5752 5754 5758 5757 5762 5770 5772 5769 5772 5779 5779 5778 5779 5779 5779 5781 5779
5698 5690 5682 5673 5663 5655 5649 5643 5639 5637 5645 5645 5644 5649 5652 5651 5659 5667 5670 5674 5677 5684 5686 5688 5698 5728 5727 5731 5736 5742 5743 5744 5755 5762 5764 5764 5762 5767 5769 5770 5770 5771 5772 5769 5769
5683 5672 5662 5651 5641 5632 5625 5619 5614 5611 5618 5618 5618 5625 5629 5629 5641 5646 5648 5653 5660 5666 5668 5667 5704 5708 5711 5714 5722 5727 5735 5742 5747 5753 5755 5752 5751 5756 5763 5763 5763 5763 5762 5762 5762
5671 5661 5648 5633 5624 5613 5606 5601 5596 5595 5598 5595 5591 5597 5606 5608 5619 5622 5628 5633 5640 5648 5648 5659 5685 5688 5690 5698 5713 5717 5732 5733 5738 5741 5741 5748 5739 5749 5756 5755 5755 5752 5754 5754 5752
5660 5647 5633 5621 5612 5603 5598 5593 5588 5585 5591 5590 5586 5586 5588 5593 5600 5601 5609 5611 5622 5627 5627 5664 5663 5665 5672 5695 5699 5714 5720 5723 5727 5730 5731 5734 5737 5742 5748 5748 5746 5748 5749 5747 5744
5650 5638 5625 5615 5605 5597 5590 5587 5584 5583 5582 5582 5582 5581 5581 5582 5586 5592 5596 5596 5603 5608 5614 5643 5643 5648 5663 5678 5682 5699 5707 5710 5718 5721 5717 5731 5733 5732 5743 5743 5742 5742 5741 5738 5737
5645 5633 5622 5611 5600 5588 5581 5579 5581 5582 5581 5580 5577 5576 5579 5581 5582 5587 5590 5594 5595 5597 5602 5621 5618 5634 5648 5658 5669 5680 5691 5698 5705 5706 5709 5730 5724 5726 5738 5736 5735 5736 5733 5731 5729
5643 5633 5623 5614 5598 5585 5581 5580 5581 5581 5579 5578 5577 5576 5578 5578 5578 5582 5582 5586 5589 5593 5594 5597 5602 5622 5642 5645 5657 5664 5676 5685 5693 5703 5711 5720 5713 5727 5728 5728 5728 5729 5727 5725 5724
5641 5632 5622 5608 5600 5592 5587 5584 5579 5578 5576 5575 5576 5573 5569 5571 5574 5574 5577 5579 5583 5580 5582 5586 5592 5607 5613 5630 5640 5653 5661 5684 5689 5699 5704 5712 5714 5718 5722 5724 5723 5722 5722 5722 5722
5640 5629 5620 5609 5601 5596 5591 5586 5582 5579 5574 5573 5572 5569 5567 5567 5569 5570 5570 5570 5573 5575 5576 5580 5581 5588 5600 5615 5625 5637 5657 5665 5674 5685 5693 5705 5712 5717 5715 5718 5720 5720 5720 5719 5721
5639 5630 5620 5610 5602 5596 5591 5586 5580 5577 5573 5569 5567 5566 5565 5564 5565 5562 5566 5567 5567 5568 5571 5571 5572 5586 5590 5598 5616 5627 5638 5652 5672 5680 5689 5699 5709 5717 5712 5713 5716 5719 5718 5719 5719
5636 5628 5618 5610 5603 5596 5590 5585 5578 5575 5573 5568 5566 5564 5562 5561 5560 5560 5561 5561 5559 5561 5562 5562 5565 5574 5579 5590 5610 5621 5633 5643 5655 5670 5680 5695 5704 5705 5709 5712 5713 5714 5715 5717 5717
5637 5627 5621 5614 5606 5597 5589 5583 5578 5573 5569 5566 5564 5562 5561 5560 5558 5556 5555 5553 5556 5556 5554 5557 5563 5570 5576 5585 5593 5603 5620 5635 5650 5670 5677 5689 5698 5699 5704 5708 5708 5709 5712 5714 5715
5636 5627 5619 5610 5602 5596 5589 5582 5577 5573 5568 5564 5562 5561 5558 5556 5554 5554 5552 5551 5552 5552 5552 5553 5558 5563 5570 5581 5586 5597 5613 5631 5645 5658 5671 5684 5696 5693 5699 5702 5703 5704 5709 5711 5714
5634 5625 5616 5610 5602 5594 5588 5581 5576 5572 5567 5563 5561 5558 5555 5553 5550 5549 5548 5547 5548 5549 5549 5551 5554 5555 5557 5566 5580 5592 5600 5625 5637 5653 5664 5678 5689 5691 5694 5695 5700 5702 5706 5709 5711
5633 5625 5616 5609 5601 5594 5585 5581 5575 5570 5566 5562 5558 5555 5552 5549 5548 5546 5545 5546 5546 5547 5548 5549 5551 5550 5554 5561 5576 5583 5594 5609 5636 5653 5667 5676 5689 5687 5684 5687 5697 5700 5704 5707 5710
5634 5626 5617 5609 5600 5593 5586 5580 5575 5569 5565 5560 5556 5552 5547 5544 5542 5543 5543 5543 5544 5546 5547 5549 5549 5549 5555 5559 5564 5576 5598 5610 5632 5649 5663 5672 5683 5679 5683 5684 5688 5695 5700 5704 5707